Powrót do katalogu

FENGYUN 1C DEB

AktywnySSO
NORAD 30600·DEBRIS·🇨🇳 China

Wystrzelony May 10, 1999 z Taiyuan Satellite Launch Center

Loading…

Następne Przeloty (najbliższe 24 godziny)

TLE

ŚwieżeSource: Space-Track

Epoka: Sep 11, 2026, 17:39 UTC

1 30600U 99025AMF 26254.73585080  .00002762  00000-0  96938-3 0  9994
2 30600  98.3921 186.6982 0312444 184.7439 175.0756 14.11827494982794

Śledź FENGYUN 1C DEB w czasie rzeczywistym z AllMySat

Download on the App Store